{"data":{"norad_id":47993,"intl_designator":"2021-024S","name":"STARLINK-2273","alt_names":[],"object_type":"PAYLOAD","status":"ACTIVE","operator":null,"country":"US","launch_date":"2021-03-24","launch_site_code":"AFETR","launch_vehicle":null,"mission":null,"orbit_class":"UNKNOWN","rcs_meters":null,"size_class":null,"mass_kg":null,"dimensions":null,"purposes":["comms"],"wikipedia_slug":null,"has_3d_model":false,"image_url":null,"decayed_at":null,"tle_current":{"epoch":"2026-09-20T04:00:03.000096Z","epoch_age_seconds":58716,"freshness":"FRESH","line1":"1 47993U 21024S   26263.16670139  .00896673  38025-3  19524-2 0  9996","line2":"2 47993  53.1396  71.6601 0001140 301.0024 262.1131 15.97755851  6003","mean_motion":15.97755851,"eccentricity":0.000114,"inclination_deg":53.1396,"raan_deg":71.6601,"arg_perigee_deg":301.0024,"mean_anomaly_deg":262.1131,"bstar":0.0019524,"rev_number":600,"period_min":90.126410684006,"perigee_km":279.88743242832,"apogee_km":281.40563507402,"semimajor_km":6658.7835337512,"source":"CELESTRAK","updated_at":"2026-09-20T09:00:38.759093Z"}}}